Manchester, NH

7:42 PM EDT on April 29, 2017 (GMT -0400)
Manchester

Weather History for KMHT - January, 2014

Change the Weather History Date:

Wednesday, January 29, 2014

  Actual Average Record
Temperature  
Mean Temperature 18 °F 25 °F  
Max Temperature 24 °F 34 °F 57 °F (2002)
Min Temperature 12 °F 16 °F -18 °F (1961)
Degree Days  
Heating Degree Days 47 40  
Month to date heating degree days 1179  
Since 1 July heating degree days 3547  
Cooling Degree Days 0 0  
Month to date cooling degree days 0  
Year to date cooling degree days 0  
Moisture  
Dew Point -6 °F    
Average Humidity 37    
Maximum Humidity 54    
Minimum Humidity 23    
Precipitation  
Precipitation 0.00 in 0.08 in 0.57 in (1994)
Month to date precipitation 2.86  
Year to date precipitation 2.86  
Snow  
Snow 0.00 in - - ()
Month to date snowfall  
Since 1 July snowfall  
Snow Depth 4.00 in    
Sea Level Pressure  
Sea Level Pressure 30.13 in    
Wind  
Wind Speed 3 mph (West)    
Max Wind Speed 13 mph    
Max Gust Speed 20 mph    
Visibility 10 miles    
Events      
T = Trace of Precipitation, MM = Missing Value Source: NWS Daily Summary

Daily Weather History Graph

Daily Weather History Graph

Search for Another Location

Airport or City:

Trip Planner

Search our weather history database for the weather conditions in past years. The results will help you decide how hot, cold, wet, or windy it might be!

Date:

Astronomy

Jan. 29, 2014 Rise Set
Actual Time 7:03 AM EST 4:54 PM EST
Civil Twilight 6:33 AM EST 5:24 PM EST
Nautical Twilight 5:59 AM EST 5:59 PM EST
Astronomical Twilight 5:25 AM EST 6:32 PM EST
Moon 5:38 AM EST 3:50 PM EST
Length of Visible Light 10h 51m
Length of Day
9h 50m
Waning Crescent, 2% of the Moon is Illuminated
Jan 29
Waning Crescent
Jan 30
New
Feb 6
First Quarter
Feb 14
Full
Feb 22
Last Quarter

Hourly Weather History & Observations

Time (EST) Temp. Windchill Dew Point Humidity Pressure Visibility Wind Dir Wind Speed Gust Speed Precip Events Conditions
12:53 AM 15.1 °F - -4.0 °F 43% 30.24 in 10.0 mi Calm Calm - N/A   Overcast
1:53 AM 14.0 °F - -4.0 °F 45% 30.22 in 10.0 mi Calm Calm - N/A   Overcast
2:53 AM 14.0 °F - -2.0 °F 49% 30.21 in 10.0 mi Calm Calm - N/A   Overcast
3:53 AM 14.0 °F - -2.9 °F 47% 30.20 in 10.0 mi Calm Calm - N/A   Overcast
4:53 AM 14.0 °F - -2.9 °F 47% 30.18 in 10.0 mi Calm Calm - N/A   Overcast
5:53 AM 14.0 °F - -2.0 °F 49% 30.16 in 10.0 mi Calm Calm - N/A   Overcast
6:53 AM 14.0 °F - -0.0 °F 54% 30.16 in 10.0 mi Calm Calm - N/A   Mostly Cloudy
7:53 AM 12.9 °F 6.9 °F -0.9 °F 54% 30.16 in 10.0 mi West 3.5 mph - N/A   Mostly Cloudy
8:53 AM 14.0 °F 6.5 °F -5.1 °F 43% 30.15 in 10.0 mi West 4.6 mph - N/A   Mostly Cloudy
9:53 AM 16.0 °F 6.3 °F -6.0 °F 38% 30.14 in 10.0 mi West 6.9 mph - N/A   Partly Cloudy
10:53 AM 19.0 °F 11.1 °F -7.1 °F 31% 30.11 in 10.0 mi West 5.8 mph - N/A   Partly Cloudy
11:53 AM 19.9 °F 10.1 °F -8.0 °F 29% 30.06 in 10.0 mi SW 8.1 mph - N/A   Partly Cloudy
12:53 PM 21.9 °F 11.7 °F -9.0 °F 25% 30.02 in 10.0 mi West 9.2 mph - N/A   Clear
1:53 PM 23.0 °F 12.4 °F -9.0 °F 24% 30.00 in 10.0 mi West 10.4 mph - N/A   Clear
2:53 PM 23.0 °F 11.1 °F -9.9 °F 23% 29.99 in 10.0 mi SW 12.7 mph 16.1 mph N/A   Clear
3:53 PM 24.1 °F 17.0 °F -8.0 °F 24% 30.00 in 10.0 mi Variable 5.8 mph - N/A   Clear
4:53 PM 23.0 °F 13.1 °F -9.9 °F 23% 30.02 in 10.0 mi West 9.2 mph 19.6 mph N/A   Clear
5:53 PM 21.0 °F 9.3 °F -9.9 °F 25% 30.07 in 10.0 mi West 11.5 mph 19.6 mph N/A   Clear
6:53 PM 19.9 °F 11.1 °F -9.0 °F 27% 30.11 in 10.0 mi West 6.9 mph - N/A   Clear
7:53 PM 18.0 °F 6.9 °F -7.1 °F 33% 30.15 in 10.0 mi West 9.2 mph 17.3 mph N/A   Clear
8:53 PM 17.1 °F 7.6 °F -7.1 °F 34% 30.19 in 10.0 mi West 6.9 mph - N/A   Clear
9:53 PM 17.1 °F 10.0 °F -6.0 °F 36% 30.22 in 10.0 mi WSW 4.6 mph - N/A   Clear
10:53 PM 16.0 °F 8.8 °F -6.0 °F 38% 30.22 in 10.0 mi West 4.6 mph - N/A   Clear
11:53 PM 15.1 °F 3.3 °F -5.1 °F 41% 30.24 in 10.0 mi SW 9.2 mph - N/A   Clear